Tracking 35280 objects as of 7-Sep-2026
HD Live streaming from Space Station
objects crossing your sky now

COSMOS 1938 DEB


COSMOS 1938 DEB is no longer on orbit


NORAD ID: 19068
Int'l Code: 1988-030F
Launch date: April 11, 1988
Source: Commonwealth of Independent States (former USSR) (CIS)
Launch site: PLESETSK MISSILE AND SPACE COMPLEX (PKMTR)
Decay date: 1988-04-29

Note: This is SATELLITE DEBRIS
Your satellite tracking list
Your tracking list is empty




NASA's NSSDC Master Catalog

Two Line Element Set (TLE):
1 19068U 88030  F 88117.47103074  .05775111 +12000-5 +14904-1 0  9998
2 19068 072.8806 335.6398 0146679 342.1597 017.4558 15.79101981002417
Source of the keplerian elements: AFSPC